SES-17

Last updated on Tue Oct 15 2024 00:02:42 GMT+0000 (Coordinated Universal Time)

1 49332U 21095A 24287.96532272 -.00000274 00000+0 00000+0 0 9999 2 49332 0.0151 214.2899 0001545 339.9282 109.2049 1.00270554 11715
UTC large
Height (km)
Speed (km/s)
/
Latitude / Longitude
Inclination (degrees)
Orbital Period (minutes)
Azimuth
Elevation
Range (km)
Doppler Factor

Next 0 passes for location: London (51.5072 / 0.1276)

Sorry there are no passes over London.